| time (UTC) | temp F | wind direction | speed knots | gust knots | rain 1hr in | rain 24hr in | rain mn in | humidity % | barometer mb |
| 20260902044543 | 70 | 330 | 0.0 | 0.0 | 0.00 | 0.87 | 0.00 | 1 | 1013.3 |
| 20260902043045 | 70 | 330 | 0.0 | 0.0 | 0.00 | 0.87 | 0.87 | 1 | 1013.2 |
| 20260902041535 | 70 | 330 | 0.0 | 0.0 | 0.00 | 0.87 | 0.87 | 1 | 1013.0 |
| 20260902040033 | 70 | 330 | 0.0 | 0.0 | 0.00 | 0.87 | 0.87 | 1 | 1012.8 |
| 20260902034528 | 70 | 330 | 0.0 | 0.0 | 0.00 | 0.87 | 0.87 | 1 | 1012.7 |
| 20260902033025 | 70 | 330 | 0.0 | 0.0 | 0.00 | 0.87 | 0.87 | 1 | 1012.4 |
| 20260902031520 | 70 | 330 | 0.0 | 0.0 | 0.00 | 0.87 | 0.87 | 1 | 1012.3 |
| 20260902030018 | 71 | 330 | 0.0 | 0.0 | 0.00 | 0.87 | 0.87 | 1 | 1012.2 |
| 20260902024513 | 71 | 330 | 0.0 | 0.0 | 0.00 | 0.87 | 0.87 | 1 | 1012.1 |
| 20260902023017 | 71 | 330 | 0.0 | 0.0 | 0.00 | 0.87 | 0.87 | 1 | 1012.1 |
| 20260902021509 | 71 | 330 | 0.0 | 0.0 | 0.00 | 0.87 | 0.87 | 1 | 1012.1 |
| 20260902020000 | 71 | 330 | 0.0 | 0.0 | 0.00 | 0.87 | 0.87 | 1 | 1012.0 |
| 20260902014557 | 71 | 330 | 0.0 | 0.0 | 0.00 | 0.87 | 0.87 | 1 | 1011.9 |
| 20260902013053 | 72 | 330 | 0.0 | 0.0 | 0.00 | 0.94 | 0.87 | 1 | 1011.7 |
| 20260902011548 | 72 | 330 | 0.0 | 0.0 | 0.00 | 0.94 | 0.87 | 1 | 1011.5 |
| 20260902010048 | 72 | 330 | 0.0 | 0.0 | 0.00 | 0.94 | 0.87 | 1 | 1011.2 |
| 20260902004545 | 73 | 330 | 0.0 | 0.0 | 0.00 | 0.94 | 0.87 | 1 | 1011.0 |
| 20260902003047 | 73 | 330 | 0.0 | 0.0 | 0.00 | 0.95 | 0.87 | 1 | 1010.8 |
| 20260902001537 | 73 | 330 | 0.0 | 0.0 | 0.00 | 0.95 | 0.87 | 1 | 1010.4 |
| 20260902000049 | 74 | 330 | 0.0 | 0.0 | 0.00 | 0.95 | 0.87 | 1 | 1010.3 |
| 20260901234536 | 74 | 335 | 0.0 | 0.0 | 0.00 | 0.95 | 0.87 | 1 | 1010.4 |
| 20260901233032 | 75 | 335 | 0.0 | 0.0 | 0.00 | 0.95 | 0.87 | 1 | 1010.3 |
| 20260901231527 | 76 | 335 | 0.0 | 0.0 | 0.00 | 0.95 | 0.87 | 1 | 1010.0 |
| 20260901230032 | 76 | 335 | 0.0 | 0.0 | 0.00 | 0.95 | 0.87 | 1 | 1009.9 |
| 20260901224516 | 77 | 335 | 0.0 | 0.0 | 0.00 | 0.95 | 0.87 | 1 | 1010.0 |
| 20260901223017 | 78 | 335 | 0.0 | 0.0 | 0.00 | 0.97 | 0.87 | 1 | 1009.6 |
| 20260901221508 | 79 | 335 | 0.0 | 0.0 | 0.00 | 0.97 | 0.87 | 1 | 1009.7 |
| 20260901220001 | 79 | 342 | 0.0 | 0.0 | 0.00 | 0.97 | 0.87 | 1 | 1009.7 |
| 20260901214557 | 79 | 342 | 0.0 | 0.0 | 0.00 | 0.97 | 0.87 | 1 | 1009.6 |
| 20260901213114 | 79 | 342 | 0.0 | 0.0 | 0.00 | 0.99 | 0.87 | 1 | 1009.5 |
| 20260901211553 | 78 | 87 | 0.0 | 0.0 | 0.00 | 0.99 | 0.87 | 1 | 1009.2 |
| 20260901210058 | 77 | 138 | 0.0 | 0.0 | 0.00 | 0.99 | 0.87 | 1 | 1009.1 |
| 20260901204542 | 77 | 141 | 0.0 | 0.0 | 0.00 | 0.99 | 0.87 | 1 | 1009.3 |
| 20260901203053 | 76 | 141 | 0.0 | 0.0 | 0.00 | 1.05 | 0.87 | 1 | 1009.3 |
| 20260901201534 | 77 | 141 | 0.0 | 0.0 | 0.00 | 1.05 | 0.87 | 1 | 1009.5 |
| 20260901200042 | 76 | 140 | 0.0 | 0.0 | 0.00 | 1.05 | 0.87 | 1 | 1009.5 |
| 20260901194540 | 76 | 140 | 0.0 | 0.0 | 0.00 | 1.05 | 0.87 | 1 | 1009.6 |
| 20260901193028 | 75 | 149 | 0.0 | 0.0 | 0.00 | 1.05 | 0.87 | 1 | 1009.5 |
| 20260901191524 | 74 | 150 | 0.0 | 0.0 | 0.00 | 1.05 | 0.87 | 1 | 1009.6 |
| 20260901190020 | 74 | 162 | 0.0 | 0.0 | 0.00 | 1.05 | 0.87 | 1 | 1009.5 |
| 20260901184525 | 74 | 163 | 0.0 | 0.0 | 0.00 | 1.05 | 0.87 | 1 | 1009.5 |
| 20260901183011 | 74 | 209 | 0.0 | 0.0 | 0.00 | 1.07 | 0.87 | 1 | 1009.5 |
| 20260901181508 | 74 | 209 | 0.0 | 0.0 | 0.00 | 1.07 | 0.87 | 1 | 1009.3 |
| 20260901180002 | 73 | 210 | 0.0 | 0.0 | 0.00 | 1.07 | 0.87 | 1 | 1009.3 |
| 20260901174558 | 72 | 213 | 0.0 | 0.0 | 0.00 | 1.07 | 0.87 | 1 | 1009.3 |
| 20260901173101 | 71 | 213 | 0.0 | 0.0 | 0.00 | 1.13 | 0.87 | 1 | 1009.4 |
| 20260901171552 | 71 | 213 | 0.0 | 0.0 | 0.00 | 1.13 | 0.87 | 1 | 1009.3 |
| 20260901170101 | 70 | 213 | 0.0 | 0.0 | 0.00 | 1.13 | 0.87 | 1 | 1009.4 |
| 20260901164546 | 71 | 213 | 0.0 | 0.0 | 0.00 | 1.13 | 0.87 | 1 | 1009.4 |
| 20260901163041 | 70 | 213 | 0.0 | 0.0 | 0.01 | 1.27 | 0.87 | 1 | 1009.6 |
| 20260901161538 | 70 | 213 | 0.0 | 0.0 | 0.01 | 1.27 | 0.87 | 1 | 1009.6 |
| 20260901160031 | 70 | 206 | 0.0 | 0.0 | 0.01 | 1.27 | 0.87 | 1 | 1009.7 |
| 20260901154525 | 69 | 206 | 0.0 | 0.0 | 0.01 | 1.27 | 0.87 | 1 | 1009.8 |
| 20260901153025 | 69 | 206 | 0.0 | 0.0 | 0.03 | 1.27 | 0.87 | 1 | 1009.9 |
| 20260901151516 | 68 | 206 | 0.0 | 0.0 | 0.02 | 1.26 | 0.86 | 1 | 1009.8 |
| 20260901150017 | 68 | 206 | 0.0 | 0.0 | 0.15 | 1.26 | 0.86 | 1 | 1009.8 |
| 20260901144514 | 70 | 206 | 0.0 | 0.0 | 0.18 | 1.26 | 0.86 | 1 | 1009.7 |
| 20260901143010 | 67 | 206 | 0.0 | 0.0 | 0.24 | 1.25 | 0.85 | 1 | 1009.7 |
| 20260901141506 | 67 | 206 | 0.0 | 0.0 | 0.27 | 1.24 | 0.84 | 1 | 1009.9 |
| 20260901140003 | 68 | 196 | 0.0 | 0.0 | 0.17 | 1.11 | 0.71 | 1 | 1009.9 |
| 20260901134613 | 67 | 196 | 0.0 | 0.0 | 0.18 | 1.08 | 0.68 | 1 | 1009.6 |
| 20260901133058 | 67 | 196 | 0.0 | 0.0 | 0.23 | 1.03 | 0.63 | 1 | 1010.3 |
| 20260901131553 | 67 | 202 | 0.0 | 0.0 | 0.34 | 0.99 | 0.59 | 1 | 1010.3 |
| 20260901130046 | 66 | 97 | 0.0 | 0.0 | 0.44 | 0.94 | 0.54 | 1 | 1010.2 |
| 20260901124543 | 66 | 98 | 0.0 | 0.0 | 0.44 | 0.91 | 0.51 | 1 | 1010.3 |
| 20260901123036 | 66 | 152 | 0.0 | 0.0 | 0.38 | 0.83 | 0.43 | 1 | 1010.9 |
| 20260901121530 | 66 | 150 | 0.0 | 0.0 | 0.24 | 0.68 | 0.28 | 1 | 1010.9 |
| 20260901120052 | 66 | 151 | 0.0 | 0.0 | 0.07 | 0.51 | 0.11 | 1 | 1010.5 |
| 20260901114534 | 158 | 151 | 0.0 | 0.0 | 0.05 | 0.49 | 0.09 | 1 | 1010.7 |
| 20260901113033 | 67 | 152 | 0.0 | 0.0 | 0.03 | 0.46 | 0.06 | 1 | 1010.4 |
| 20260901111526 | 69 | 220 | 0.0 | 0.0 | 0.01 | 0.44 | 0.04 | 1 | 1010.0 |
| 20260901110029 | 158 | 220 | 0.0 | 0.0 | 0.01 | 0.44 | 0.04 | 1 | 1009.9 |
| 20260901104526 | 158 | 220 | 0.0 | 0.0 | 0.01 | 0.44 | 0.04 | 1 | 1010.1 |
| 20260901103028 | 158 | 220 | 0.0 | 0.0 | 0.00 | 0.43 | 0.03 | 1 | 1010.0 |
| 20260901101522 | 158 | 220 | 0.0 | 0.0 | 0.00 | 0.43 | 0.03 | 1 | 1009.9 |
| 20260901100008 | 158 | 220 | 0.0 | 0.0 | 0.00 | 0.43 | 0.03 | 1 | 1010.0 |
| 20260901094506 | 158 | 220 | 0.0 | 0.0 | 0.01 | 0.43 | 0.03 | 1 | 1010.3 |
| 20260901093006 | 158 | 220 | 0.0 | 0.0 | 0.01 | 0.43 | 0.03 | 1 | 1010.5 |
| 20260901091505 | 158 | 220 | 0.0 | 0.0 | 0.02 | 0.43 | 0.03 | 1 | 1010.5 |
| 20260901090008 | 158 | 220 | 0.0 | 0.0 | 0.02 | 0.43 | 0.03 | 1 | 1010.8 |
| 20260901084503 | 158 | 220 | 0.0 | 0.0 | 0.02 | 0.42 | 0.02 | 1 | 1011.0 |
| 20260901083002 | 158 | 220 | 0.0 | 0.0 | 0.02 | 0.42 | 0.02 | 1 | 1011.3 |
| 20260901081601 | 158 | 220 | 0.0 | 0.0 | 0.02 | 0.42 | 0.02 | 1 | 1011.5 |
| 20260901074600 | 158 | 220 | 0.0 | 0.0 | 0.00 | 0.40 | 0.00 | 1 | 1011.5 |
| 20260901073057 | 158 | 220 | 0.0 | 0.0 | 0.00 | 0.40 | 0.00 | 1 | 1011.7 |
| 20260901071556 | 158 | 220 | 0.0 | 0.0 | 0.00 | 0.40 | 0.00 | 1 | 1011.9 |
| 20260901064556 | 158 | 220 | 0.0 | 0.0 | 0.00 | 0.40 | 0.00 | 1 | 1011.9 |
| 20260901063054 | 158 | 220 | 0.0 | 0.0 | 0.00 | 0.40 | 0.00 | 1 | 1012.0 |
| 20260901061553 | 158 | 220 | 0.0 | 0.0 | 0.00 | 0.40 | 0.00 | 1 | 1012.2 |
| 20260901054550 | 158 | 220 | 0.0 | 0.0 | 0.00 | 0.40 | 0.00 | 1 | 1012.7 |
| 20260901053116 | 158 | 220 | 0.0 | 0.0 | 0.00 | 0.40 | 0.00 | 1 | 1012.9 |
| 20260901051603 | 158 | 220 | 0.0 | 0.0 | 0.00 | 0.40 | 0.00 | 1 | 1012.9 |